Terminal Aerodrome Forecast
Issued by NWS Charleston, WV

Current Version | Previous Version | Text Only | Print | Product List | Glossary On
Versions: 1 2 3 4 5 6 7 8 9 10 11 12 13 14 15 16 17 18 19 20 21 22 23 24 25 26 27 28 29 30
161
FTUS41 KRLX 232323
TAFCRW
TAF
KCRW 232323Z 2400/2424 22005KT P6SM SCT040 BKN090
     FM240100 00000KT P6SM BKN100
     FM240600 00000KT 6SM BR OVC035
     FM240800 00000KT 3SM SHRA BR OVC015
     FM241000 00000KT 3SM SHRA BR OVC008=

USA.gov is the U.S. government's official web portal to all federal, state and local government web resources and services.